Preview of NWS' New Version of Forecast
This preview is not operational and should not be used for support decisions.
Latest weather observations around

Dalton, Dalton Municipal Airport (KDNN)

Using English Units (Switch to International System of Units)
Date/ Time (EDT) Wind (mph) Vis. (mi) Weather Sky Cond. Temp (°F) Rel. Humidity Wind Chill (°F) Heat Index (°F) Pressure Precip. (in)
Air Dwpt 6 hour Altimeter (inHg) Sea level (inHg) 1 hr 3 hr 6 hr
Max Min
Mar 18 21:55 NNW 7 10 Clear CLR 45 18     34% 41   30.34        
Mar 18 21:35 NNW 6 10 Clear CLR 45 18     34% 41   30.34        
Mar 18 21:15 NNW 6 10 Clear CLR 45 18     34% 41   30.33        
Mar 18 20:55 NNW 5 10 Clear CLR 45 18     34% 42   30.33        
Mar 18 20:35 N 5 10 Clear CLR 46 18     31% 44   30.33        
Mar 18 20:15 N 3 10 Clear CLR 46 18     31% 45   30.32        
Mar 18 19:55 N 6 10 Clear CLR 50 16     25%     30.31        
Mar 18 19:35 N 7 10 Clear CLR 50 14     23%     30.3        
Mar 18 19:15 N 10 10 Clear CLR 52 14     22%     30.3        
Mar 18 18:55 NNW 11 10 Clear CLR 52 16     24%     30.29        
Mar 18 18:35 N 15 10 Clear CLR 54 16     22%     30.28        
Mar 18 18:15 NNW 10 10 Clear CLR 54 18     24%     30.28        
Mar 18 17:55 N 8 10 Clear CLR 54 16     22%     30.27        
Mar 18 17:35 N 9 10 Clear CLR 55 18     22%     30.27        
Mar 18 17:15 N 14 10 Clear CLR 55 19     24%     30.27        
Mar 18 16:55 NNW 11 10 Clear CLR 55 19     24%     30.28        
Mar 18 16:35 NW 13 10 Clear CLR 55 19     24%     30.28        
Mar 18 16:15 N 9 10 Clear CLR 55 21     26%     30.29        
Mar 18 15:55 NE 9 10 Clear CLR 55 21     26%     30.29        
Mar 18 15:35 N 10 10 Clear CLR 55 21     26%     30.29        
Mar 18 15:15 N 15 10 Clear CLR 55 23     28%     30.3        
Mar 18 14:55 NNE 11 10 Clear CLR 54 23     30%     30.31        
Mar 18 14:35 NNW 14 10 Clear CLR 54 23     30%     30.33        
Mar 18 14:15 NNW 16 10 Clear CLR 54 25     32%     30.33        
Mar 18 13:55 N 13 10 Clear CLR 54 27     35%     30.33        
Mar 18 13:35 NNE 9 10 Clear CLR 54 30     41%     30.34        
Mar 18 13:15 N 11 10 Clear CLR 52 30     43%     30.35        
Mar 18 12:55 N 11 10 Clear CLR 52 32     47%     30.35        
Mar 18 12:35 N 10 10 Clear CLR 50 32     50%     30.36        
Mar 18 12:15 NNW 13 10 Clear CLR 50 32     50%     30.36        
Mar 18 11:55 N 9 10 Clear CLR 50 32     50%     30.36        
Mar 18 11:35 N 8 10 Clear CLR 48 32     53% 45   30.36        
Mar 18 11:15 N 8 10 Clear CLR 46 32     57% 42   30.35        
Mar 18 10:55 N 9 10 Clear CLR 46 32     57% 42   30.34        
Mar 18 10:35 N 11 10 Clear CLR 45 32     61% 39   30.34        
Mar 18 10:15 N 10 10 Clear CLR 45 32     61% 39   30.34        
Mar 18 09:55 NNW 9 10 Clear CLR 43 32     65% 37   30.34        
Mar 18 09:35 N 14 10 Clear CLR 43 32     65% 36   30.33        
Mar 18 09:15 NNW 8 10 Clear CLR 41 32     70% 36   30.32        
Mar 18 08:55 NNW 8 10 Clear CLR 39 32     75% 34   30.31        
Mar 18 08:35 NW 6 10 Clear CLR 37 30     75% 33   30.3        
Mar 18 08:15 NNW 5 10 Clear CLR 36 30     81% 32   30.29        
Mar 18 07:55 NNW 7 10 Clear   36 30     81% 30   30.29        
Mar 18 07:35 NW 5 10 Clear CLR 36 30     81% 32   30.28        
Mar 18 07:15 NW 5 10 Clear CLR 36 28     75% 32   30.27        
Mar 18 06:55 NNW 6 10 Clear CLR 37 30     75% 33   30.26        
Mar 18 06:35 NNW 7 10 Clear CLR 37 30     75% 32   30.26        
Mar 18 06:15 NNW 6 10 Clear CLR 37 30     75% 33   30.26        
Mar 18 05:55 NNW 8 10 Clear CLR 36 30     81% 29   30.25        
Mar 18 05:35 NNW 6 10 Clear CLR 36 30     81% 31   30.25        
Mar 18 05:15 NW 3 10 Clear CLR 34 30     86% 31   30.24        
Mar 18 04:55 NNW 3 10 Clear CLR 32 32     100% 29   30.25        
Mar 18 04:35 Calm 10 Clear CLR 32 30     93%     30.25        
Mar 18 04:15 Calm 10 Clear CLR 34 32     93%     30.25        
Mar 18 03:55 NNW 3 10 Clear CLR 36 32     87% 33   30.26        
Mar 18 03:35 NNW 6 10 Clear CLR 34 32     93% 29   30.26        
Mar 18 03:15 Calm 10 Clear CLR 34 32     93%     30.26        
Mar 18 02:55 Calm 10 Clear CLR 34 32     93%     30.25        
Mar 18 02:35 Calm 10 Clear CLR 34 32     93%     30.25        
Mar 18 02:15 Calm 10 Clear CLR 34 32     93%     30.24        
Mar 18 01:55 Calm 10 Clear CLR 34 32     93%     30.24        
Mar 18 01:35 Calm 10 Clear CLR 36 32     87%     30.24        
Mar 18 01:15 Calm 10 Clear CLR 36 32     87%     30.24        
Mar 18 00:55 Calm 10 Clear CLR 36 32     87%     30.24        
Mar 18 00:35 Calm 10 Clear CLR 36 32     87%     30.24        
Mar 18 00:15 Calm 10 Clear CLR 36 32     87%     30.23        
Mar 17 23:55 Calm 10 Clear CLR 37 30     75%     30.23        
Mar 17 23:35 Calm 10 Clear CLR 37 32     81%     30.23        
Mar 17 23:15 Calm 10 Clear CLR 39 32     75%     30.23        
Mar 17 22:55 Calm 10 Clear CLR 41 32     70%     30.22        
Mar 17 22:35 Calm 10 Clear CLR 41 30     65%     30.22        
Mar 17 22:15 Calm 10 Clear CLR 43 30     61%     30.21        
Mar 17 21:55 Calm 10 Clear CLR 43 30     61%     30.21        
Mar 17 21:35 Calm 10 Clear CLR 46 30     53%     30.21        
Mar 17 21:15 Calm 10 Clear CLR 46 32     57%     30.2        
Mar 17 20:55 Calm 10 Clear CLR 50 27     40%     30.2        
Mar 17 20:35 Calm 10 Clear CLR 52 27     37%     30.19        
Mar 17 20:15 Calm 10 Clear CLR 54 25     32%     30.19        
Mar 17 19:55 Calm 10 Clear CLR 55 27     33%     30.18        
Mar 17 19:35 Calm 10 Clear CLR 61 23     23%     30.18        
Mar 17 19:15 Calm 10 Clear CLR 63 25     24%     30.17        
Mar 17 18:55 Calm 10 Clear CLR 63 27     25%     30.17        
Mar 17 18:35 Calm 10 Clear CLR 63 23     22%     30.17        
Mar 17 18:15 Calm 10 Clear CLR 63 23     22%     30.17        
Mar 17 17:55 Calm 10 Clear CLR 63 23     22%     30.18        
Mar 17 17:35 NNW 5 10 Clear CLR 63 23     22%     30.18        
Mar 17 17:15 Calm 10 Clear CLR 63 23     22%     30.18        
Mar 17 16:55 NNW 13 10 Clear CLR 63 25     24%     30.19        
Mar 17 16:35 NNW 7 10 Clear CLR 63 27     25%     30.19        
Mar 17 16:15 NNW 8 10 Clear CLR 63 27     25%     30.19        
Mar 17 15:55 WNW 3 10 Clear CLR 63 23     22%     30.2        
Mar 17 15:35 NNW 3 10 Clear CLR 63 23     22%     30.21        
Mar 17 15:15 WNW 7 10 Clear CLR 63 23     22%     30.22        
Mar 17 14:55 NW 9 10 Clear CLR 63 23     22%     30.24        
Mar 17 14:35 NW 8 10 Clear CLR 63 25     24%     30.25        
Mar 17 14:15 NNW 5 10 Clear CLR 61 25     25%     30.26        
Mar 17 13:55 NW 5 10 Clear CLR 61 23     23%     30.28        
Mar 17 13:35 Calm 10 Clear CLR 59 21     23%     30.29        
Mar 17 13:15 WNW 3 10 Clear CLR 57 21     25%     30.31        
Mar 17 12:55 NNW 7 10 Clear CLR 57 21     25%     30.31        
Mar 17 12:35 NW 5 10 Clear CLR 55 21     26%     30.32        
Mar 17 12:15 NW 6 10 Clear CLR 55 21     26%     30.33        
Mar 17 11:55 NNW 8 10 Clear CLR 54 21     28%     30.34        
Mar 17 11:35 NNW 5 10 Clear CLR 52 25     35%     30.34        
Mar 17 11:15 NW 3 10 Clear CLR 52 25     35%     30.35        
Mar 17 10:55 NNW 6 10 Clear CLR 50 25     37%     30.34        
Mar 17 10:35 N 5 10 Clear CLR 46 25     42% 44   30.34        
Mar 17 10:15 NNW 5 10 Clear CLR 46 25     42% 44   30.33        
Mar 17 09:55 N 5 10 Clear CLR 45 23     42% 42   30.33        
Mar 17 09:35 N 3 10 Clear CLR 43 23     45% 41   30.34        
Mar 17 09:15 NNW 3 10 Clear CLR 39 25     56% 37   30.33        
Mar 17 08:55 NNW 3 10 Clear CLR 36 25     64% 33   30.32        
Mar 17 08:35 NNW 5 10 Clear CLR 34 23     64% 29   30.31        
Mar 17 08:15 NNW 7 10 Clear CLR 34 23     64% 28   30.3        
Mar 17 07:55 NW 7 10 Clear CLR 34 23     64% 28   30.31        
Mar 17 07:35 NNW 5 10 Clear CLR 36 23     60% 32   30.3        
Mar 17 07:15 NNW 7 10 Clear CLR 36 23     60% 30   30.3        
Mar 17 06:55 NNW 8 10 Clear CLR 36 23     60% 29   30.3        
Mar 17 06:35 NNW 6 10 Clear CLR 36 23     60% 31   30.29        
Mar 17 06:15 NNW 3 10 Clear CLR 36 25     64% 33   30.28        
Mar 17 05:55 NNW 6 10 Clear CLR 36 25     64% 31   30.28        
Mar 17 05:35 NNW 8 10 Clear CLR 37 25     60% 31   30.27        
Mar 17 05:15 NNW 7 10 Clear CLR 37 25     60% 32   30.27        
Mar 17 04:55 Calm 10 Clear CLR 37 23     56%     30.26        
Mar 17 04:35 Calm 10 Clear CLR 37 23     56%     30.26        
Mar 17 04:15 N 3 10 Clear CLR 39 23     52% 37   30.26        
Mar 17 03:55 NNW 5 10 Clear CLR 39 23     52% 36   30.27        
Mar 17 03:35 NNW 5 10 Clear CLR 39 25     56% 36   30.26        
Mar 17 03:15 N 5 10 Clear CLR 39 27     60% 36   30.27        
Mar 17 02:55 NNW 7 10 Clear CLR 39 27     60% 34   30.27        
Mar 17 02:35 NNW 7 10 Clear CLR 39 27     60% 34   30.27        
Mar 17 02:15 NNW 7 10 Clear CLR 39 27     60% 34   30.27        
Mar 17 01:55 Calm 10 Clear CLR 37 27     65%     30.27        
Mar 17 01:35 N 3 10 Clear CLR 37 27     65% 35   30.28        
Mar 17 01:15 Calm 10 Clear CLR 37 27     65%     30.28        
Mar 17 00:55 Calm 10 Clear CLR 39 27     60%     30.29        
Mar 17 00:35 Calm 10 Clear CLR 39 27     60%     30.29        
Mar 17 00:15 Calm 10 Clear CLR 39 27     60%     30.29        
Mar 16 23:55 NNW 5 10 Clear CLR 41 28     61% 38   30.29        
Mar 16 23:35 NNW 5 10 Clear CLR 41 28     61% 38   30.29        
Mar 16 23:15 NNW 5 10 Clear CLR 39 28     65% 36   30.29        
Mar 16 22:55 NNW 3 10 Clear CLR 39 30     70% 37   30.28        
Mar 16 22:35 NNW 3 10 Clear CLR 39 30     70% 37   30.28        
Notice The following observation data may not be complete
Mar 16 22:15 Calm 10 Clear CLR   32      %     30.28        
Notice The following observation data may not be complete
Mar 16 21:55 Calm 10 Clear CLR   28      %     30.28        
Mar 16 21:35 Calm 10 Clear CLR 39 28     65%     30.28        
Mar 16 21:15 Calm 10 Clear CLR 41 30     65%     30.27        
Mar 16 20:55 Calm 10 Clear CLR 41 28     61%     30.27        
Mar 16 20:35 Calm 10 Clear CLR 43 28     57%     30.26        
Mar 16 20:15 Calm 10 Clear CLR 46 28     49%     30.26        
Mar 16 19:55 Calm 10 Clear CLR 50 25     37%     30.27        
Mar 16 19:35 Calm 10 Clear CLR 54 27     35%     30.26        
Mar 16 19:15 Calm 10 Clear CLR 54 25     32%     30.26        
Mar 16 18:55 N 6 10 Clear CLR 55 27     33%     30.25        
Mar 16 18:35 NNE 6 10 Clear CLR 55 25     30%     30.25        
Mar 16 18:15 N 6 10 Clear CLR 55 27     33%     30.25        
Mar 16 17:55 NNE 13 10 Clear CLR 55 25     30%     30.26        
Mar 16 17:35 NNW 9 10 Clear CLR 55 27     33%     30.26        
Mar 16 17:15 NNW 10 10 Clear CLR 54 27     35%     30.26        
Mar 16 16:55 N 8 10 Clear CLR 54 25     32%     30.27        
Mar 16 16:35 N 9 10 Clear CLR 54 25     32%     30.27        
Mar 16 16:15 N 7 10 Clear CLR 52 25     35%     30.28        
Mar 16 15:55 N 8 10 Clear CLR 52 25     35%     30.28        
Mar 16 15:35 NNW 7 10 Clear CLR 52 25     35%     30.29        
Mar 16 15:15 NNE 10 10 Clear CLR 52 25     35%     30.3        
Mar 16 14:55 N 9 10 Clear CLR 52 25     35%     30.31        
Mar 16 14:35 N 11 10 Clear CLR 52 23     32%     30.32        
Mar 16 14:15 N 11 10 Clear CLR 50 23     34%     30.33        
Mar 16 13:55 N 15 10 Clear CLR 50 25     37%     30.33        
Mar 16 13:35   10 Clear CLR 48 25     40%     30.34        
Mar 16 13:15 N 9 10 Clear CLR 48 27     43% 44   30.34        
Mar 16 12:55 N 14 10 Clear CLR 46 27     46% 40   30.36        
Mar 16 12:35 N 13 10 Clear CLR 46 27     46% 41   30.36        
Mar 16 12:15 N 11 10 Clear CLR 45 27     49% 39   30.37        
Mar 16 11:55 N 13 10 Clear CLR 45 27     49% 38   30.37        
Mar 16 11:35 N 14 10 Clear CLR 43 28     57% 36   30.37        
Mar 16 11:15 N 14 10 Clear CLR 43 28     57% 36   30.36        
Mar 16 10:55 N 11 10 Clear CLR 43 28     57% 37   30.36        
Mar 16 10:35   10 Clear CLR 43 28     57%     30.36        
Mar 16 10:15 N 15 10 Clear CLR 43 28     57% 35   30.35        
Mar 16 09:55 N 13 10 Clear CLR 41 28     61% 34   30.35        
Mar 16 09:35 N 14 10 Clear CLR 41 28     61% 33   30.33        
Mar 16 09:15 N 11 10 Clear CLR 41 28     61% 34   30.31        
Mar 16 08:55 N 14 10 Clear CLR 39 28     65% 31   30.3        
Mar 16 08:35 N 11 10 Clear CLR 39 28     65% 32   30.3        
Mar 16 08:15 N 13 10 Clear CLR 39 28     65% 32   30.3        
Mar 16 07:55 NNW 10 10 Clear CLR 39 28     65% 33   30.28        
Mar 16 07:35 NNW 11 10 Clear CLR 39 28     65% 32   30.28        
Mar 16 07:15 N 11 10 Clear CLR 41 28     61% 34   30.28        
Mar 16 06:55 N 9 10 Clear CLR 41 28     61% 35   30.28        
Mar 16 06:35 NNW 11 10 Clear CLR 41 28     61% 34   30.27        
Mar 16 06:15 N 15 10 Clear CLR 41 28     61% 33   30.27        
Mar 16 05:55 NNW 10 10 Clear CLR 41 28     61% 35   30.26        
Mar 16 05:35 N 10 10 Clear CLR 41 28     61% 35   30.26        
Mar 16 05:15 N 15 10 Clear CLR 41 28     61% 33   30.27        
Mar 16 04:55 N 11 10 Clear CLR 43 28     57% 37   30.26        
Mar 16 04:35 N 15 10 Clear CLR 43 28     57% 35   30.26        
Mar 16 04:15 N 13 10 Clear CLR 43 28     57% 36   30.26        
Mar 16 03:55 N 17 10 Clear CLR 43 30     61% 35   30.26        
Mar 16 03:35 N 9 10 Clear CLR 43 30     61% 37   30.28        
Mar 16 03:15 N 13 10 Clear CLR 43 30     61% 36   30.28        
Mar 16 02:55 NNW 10 10 Clear CLR 43 30     61% 37   30.28        
Mar 16 02:35 NNW 15 10 Clear CLR 43 30     61% 35   30.28        
Mar 16 02:15 NNW 14 10 Clear CLR 43 30     61% 36   30.28        
Mar 16 01:55 NNW 14 10 Clear CLR 45 32     61% 38   30.27        
Mar 16 01:35 NNW 14 10 Clear CLR 45 30     57% 38   30.27        
Mar 16 01:15 NNW 16 10 Clear CLR 45 32     61% 37   30.27        
Mar 16 00:55 NNW 14 10 Clear CLR 45 32     61% 38   30.28        
Mar 16 00:35 NNW 13 10 Partly Cloudy SCT046 45 32     61% 38   30.28        
Mar 16 00:15 N 8 10 Clear CLR 45 32     61% 40   30.27        
Mar 15 23:55 NNW 16 10 Clear CLR 46 32     57% 40   30.26        
Mar 15 23:35 NW 13 10 Clear CLR 46 34     61% 41   30.25        
Mar 15 23:15 NNW 10 10 Clear CLR 46 32     57% 41   30.25        
Mar 15 22:55 NNW 11 10 Clear CLR 48 34     57% 43   30.24        
Mar 15 22:35 NNW 18 10 Clear CLR 50 34     54%     30.23        
Mar 15 22:15 N 14 10 Clear CLR 50 36     58%     30.23        
May 15 14:35 SE 5 10 Clear CLR 81 64     58%   82 30        
May 15 12:15 S 3 10 Clear CLR 77 68     74%   78 30.04        
May 15 10:55 Calm 10 Clear CLR 75 68     78%   76 30.04        
May 15 02:15 Calm 10 Clear CLR 70 68     94%     30.01        
May 14 19:55 Calm 10 Clear CLR 81 72     74%   85 29.97        
May 14 07:15 Calm 10 Clear CLR 61 61     100%     30.08        
May 14 01:35 Calm 10 Clear CLR 64 64     100%     30.08        
May 13 23:55 Calm 10 Clear CLR 68 68     100%     30.1        
May 13 19:15 Calm 10 Clear CLR 86 63     46%   87 30.04        
May 13 13:55 NE 5 10 Clear CLR 86 63     46%   87 30.13        
May 12 19:55 Calm 10 Clear CLR 81 59     48%   81 30.1        
May 12 14:15 Calm 10 Partly Cloudy SCT065 86 57     38%   85 30.15        
May 12 06:35 Calm 7 Clear CLR 59 59     100%     30.16        
Notice The following observation data may not be complete
May 12 06:15   7 Clear CLR          %              
May 12 01:35 Calm 10 Clear CLR 64 63     94%     30.13        
May 11 22:55 Calm 10 Clear CLR 68 64     88%     30.12        
May 11 17:55 S 6 10 Clear CLR 86 61     43%   86 30.07        
Jun 12 08:35 Calm 10 Cloudy SCT024 BKN030 OVC040 73 72     94%   75 30.22        
Notice The following observation data may not be complete
Jun 12 05:15   10 Mostly Cloudy SCT049 BKN070          %              
Jun 12 01:55 Calm 10 Cloudy SCT046 OVC075 73 70     89%   75 30.17        
Notice The following observation data may not be complete
Jun 11 14:35   10 Mostly Cloudy SCT037 SCT050 BKN090          %              
Jun 11 10:15 SSE 5 10 Cloudy OVC019 75 70     83%   76 30.22        
Notice The following observation data may not be complete
Jun 11 09:55   10 Cloudy OVC017          %              
Jun 11 06:55 Calm 10 Clear CLR 63 63     100%     30.17        
Notice The following observation data may not be complete
Jun 11 03:35   10 Clear CLR          %              
Jun 10 22:15 Calm 10 Partly Cloudy SCT070 73 66     78%   74 30.11        
Jun 10 19:55 SSE 3 10 Partly Cloudy SCT060 81 61     51%   81 30.06        
Jun 10 18:55 SSE 3 10 Clear CLR 82 61     48%   83 30.05        
Notice The following observation data may not be complete
Jun 10 10:35   10 Clear CLR          %              
Jun 10 00:15 Calm 10 Clear CLR 63 63     100%     30.02        
Jun 09 23:55 Calm 10 Clear CLR 63 63     100%     30.02        
Notice The following observation data may not be complete
Jun 09 22:35   10 Clear CLR          %              
Jun 09 17:55 SSW 3 10 Clear CLR 81 54     39%   80 29.95        
Jun 09 17:15 S 5 10 Clear CLR 81 55     42%   81 29.95        
Jun 09 16:15 S 3 10 Partly Cloudy SCT070 81 55     42%   81 29.96        
Notice The following observation data may not be complete
Jun 09 15:15   10 Partly Cloudy SCT060          %              
Jun 09 14:15 Calm 10 Partly Cloudy SCT050 SCT060 77 57     50%   77 29.98        
Jun 09 11:55 S 3 10 Clear CLR 75 61     61%   75 30.01        
Jun 09 00:15 NW 5 10 Clear CLR 64 59     83%     29.92        
Jun 07 22:35 NNW 7 10 Clear CLR 66 55     68%     29.89        
Notice The following observation data may not be complete
Jun 07 20:35   10 Clear CLR          %              
Jun 07 18:55 N 9 10 Clear CLR 77 52     41%   76 29.84        
Jun 07 18:35 N 9 10 Clear CLR 77 52     41%   76 29.84        
Notice The following observation data may not be complete
Jun 07 15:15   10 Clear CLR          %              
Jun 07 11:55 NNE 6 10 Mostly Cloudy BKN049 72 55     57%   71 29.88        
Jun 06 09:15 Calm 10 Cloudy BKN007 OVC011 70 70     100%     29.84        
Jun 06 05:15 Calm 5 Fog/Mist BKN006 BKN010 BKN015 70 70     100%     29.81        
Notice The following observation data may not be complete
Jun 06 04:55   4 Fog/Mist SCT001 BKN006 OVC013          %              
Jun 06 04:35 Calm 0.75 Fog/Mist OVC001 70 70     100%     29.81        
Jun 05 16:15 Calm 10 Mostly Cloudy SCT060 BKN070 72 70     94%   73 29.8        
Jun 05 15:55 NNW 7 10 Cloudy SCT015 BKN038 OVC060 73 70     89%   75 29.8